Погода в Озерном

Россия / Красноярский край     58°27′54″N   92°04′59″E
темп.,
°C
ветер,
м/с
пор.,
м/с
влажн.,
%
обл.,
%
осадки,
мм/ч
давл.,
гПа
погр.,
м
4 июля, пн
пн401:00+11юз269919 1.0 1004157
04:00+10юз269999 0.0 1005141
07:00+13юз249533 0.0 1006271
10:00+17зюз3471100 0.4 10061115
13:00+21зюз1449100 1.4 10061772
16:00+19сз1463100 0.1 1006323
19:00+18св117686 0.3 100629
22:00+13юв00885 0.1 100611
5 июля, вт
вт501:00+11с01935 0.1 100710
04:00+10всв11955 0.0 100710
07:00+14всв23814 0.0 1006171
10:00+21в22565 0.0 1006946
13:00+25в234134 0.0 10042215
16:00+25вюв333897 0.0 10032235
19:00+21св2269100 0.0 100337
22:00+17св227929 0.0 100236
6 июля, ср
ср601:00+14св228278 0.0 100240
04:00+13ссв248370 0.0 100273
07:00+18в286871 0.0 1002256
10:00+23в364982 0.0 1001784
13:00+25в2545100 0.0 10011279
16:00+28всв1335100 0.0 10002379
19:00+18юв4977100 0.7 1002229
22:00+16з2394100 1.6 100365
7 июля, чт
чт701:00+16вюв1195100 2.1 100328
04:00+16сз2598100 0.2 1003137
07:00+16зсз1396100 0.2 1004150
10:00+18зюз1186100 0.1 1004437
13:00+19ссв118532 1.1 1005504
16:00+19ссз118860 2.8 1005500
19:00+19ссз249459 5.3 1005404
22:00+15ссз379853 0.9 1006196
8 июля, пт
пт801:00+14с379857 0.9 1006219
04:00+14с259853 0.0 1006133
07:00+16ссв249275 0.0 1006276
10:00+20св237983 0.4 1007908
13:00+19св239043 3.1 1007562
16:00+21всв238412 4.3 1007735
19:00+22ююз016895 5.2 1006389
22:00+16з119076 0.7 100711